"2009-04-27 00:00:00",835523,8.62,208.9,6.413,0.973,9.41,101.8773,4.09,5.389,72.18,0,109.8,13.47,4.86,170.9
"2009-04-27 00:00:30",835524,8.62,201.7,6.571,0.941,9.26,101.8781,4.092,5.417,72.27,0,109.8,13.46,4.86,163.7
"2009-04-27 00:01:00",835525,8.33,208.5,4.167,1.157,8.53,101.8706,4.073,5.329,72.24,0,109.8,13.46,4.84,170.5
"2009-04-27 00:01:30",835526,7.34,211.9,8.88,1.269,7.354,101.8714,4.075,5.203,72.02,0,109.8,13.46,4.84,173.9
"2009-04-27 00:02:00",835527,7.721,208.7,7.517,1.226,7.243,101.8706,4.073,5.363,72.16,0,109.8,13.46,4.84,170.7
"2009-04-27 00:02:30",835528,7.921,210.6,4.434,0.94,9.2,101.8641,4.056,5.245,72.15,0,109.8,13.47,4.82,172.6
"2009-04-27 00:03:00",835529,8.08,208.7,6.522,1.133,9.85,101.8611,4.048,5.347,72.24,0,109.8,13.47,4.81,170.7
"2009-04-27 00:03:30",835530,9.2,213.7,7.295,0.958,9.68,101.8582,4.041,5.353,72.21,0,109.8,13.47,4.81,175.7
"2009-04-27 00:04:00",835531,8.92,215.2,5.507,0.83,9.8,101.8625,4.052,5.385,72.25,0,109.8,13.47,4.82,177.2
"2009-04-27 00:04:30",835532,9.5,213.1,4.924,0.736,9.27,101.8611,4.048,5.368,72.34,0,109.8,13.47,4.81,175.1
"2009-04-27 00:05:00",835533,7.152,205.7,6.735,1.187,6.651,101.8631,4.054,5.253,72.25,0,109.8,13.47,4.82,167.7
"2009-04-27 00:05:30",835534,6.12,201.5,3.226,0.31,4.85,101.8648,4.058,5.063,72.01,0,109.8,13.47,4.82,163.5
"2009-04-27 00:06:00",835535,7.228,207.1,5.865,1.208,7.751,101.8623,4.051,5.228,72.12,0,109.8,13.47,4.82,169.1
"2009-04-27 00:06:30",835536,7.487,213.7,6.158,1.006,8.89,101.8577,4.04,5.23,72.18,0,109.8,13.47,4.81,175.7
"2009-04-27 00:07:00",835537,8.17,209.9,5.548,1.001,9.61,101.856,4.036,5.318,72.24,0,109.8,13.47,4.80,171.9
"2009-04-27 00:07:30",835538,8.97,214.2,5.371,0.916,9.19,101.8535,4.029,5.322,72.21,0,109.8,13.47,4.80,176.2
"2009-04-27 00:08:00",835539,9.17,214.7,4.873,0.965,9.31,101.849,4.018,5.305,72.18,0,109.8,13.47,4.78,176.7
"2009-04-27 00:08:30",835540,9.32,211.8,4.273,0.529,9.3,101.8498,4.02,5.327,72.33,0,109.8,13.47,4.79,173.8
"2009-04-27 00:09:00",835541,8.61,207.2,7.068,1.162,8.35,101.849,4.018,5.257,72.34,0,109.8,13.47,4.78,169.2
"2009-04-27 00:09:30",835542,7.747,200.6,7.114,1.036,5.428,101.8487,4.017,5.014,72.17,0,109.8,13.47,4.78,162.6
"2009-04-27 00:10:00",835543,8.18,206,6.679,1.246,7.07,101.8484,4.016,5.143,72.33,0,109.8,13.47,4.78,168.0
"2009-04-27 00:10:30",835544,8.74,209.5,4.679,1.094,9.23,101.8476,4.014,5.323,72.54,0,109.8,13.47,4.78,171.5
"2009-04-27 00:11:00",835545,9.19,207.4,4.414,0.623,10.15,101.8476,4.014,5.334,72.56,0,109.8,13.47,4.78,169.4
"2009-04-27 00:11:30",835546,8.79,208.7,3.406,0.783,9.82,101.8442,4.005,5.327,72.48,0,109.8,13.47,4.77,170.7
"2009-04-27 00:12:00",835547,9,204.4,4.401,0.668,9.53,101.8411,3.997,5.28,72.36,0,109.8,13.47,4.76,166.4
"2009-04-27 00:12:30",835548,7.217,196.4,5.971,0.937,6.169,101.8402,3.995,5.291,72.39,0,109.8,13.47,4.76,158.4
"2009-04-27 00:13:00",835549,8.28,201.1,6.117,1.299,6.841,101.8371,3.987,5.066,72.2,0,109.8,13.47,4.75,163.1
"2009-04-27 00:13:30",835550,8.33,204.9,6.507,1.153,8.02,101.8374,3.988,5.271,72.63,0,109.8,13.47,4.75,166.9
"2009-04-27 00:14:00",835551,9.24,206.5,5.277,0.458,9.51,101.8365,3.986,5.255,72.83,0,109.8,13.47,4.75,168.5
"2009-04-27 00:14:30",835552,9.01,206.7,4.268,0.748,9.93,101.8326,3.976,5.301,72.91,0,109.8,13.47,4.74,168.7
"2009-04-27 00:15:00",835553,8.31,205.9,6.416,1.233,8.54,101.832,3.974,5.27,72.8,0,109.8,13.47,4.74,167.9
"2009-04-27 00:15:30",835554,7.572,197.3,5.803,1.201,6.92,101.832,3.974,5.239,72.65,0,109.8,13.47,4.74,159.3
"2009-04-27 00:16:00",835555,6.479,190.2,6.226,1,6.249,101.8317,3.974,5.165,72.5,0,109.8,13.47,4.74,152.2
"2009-04-27 00:16:30",835556,8.07,198,5.002,0.977,8.93,101.8317,3.974,5.183,72.4,0,109.8,13.47,4.74,160.0
"2009-04-27 00:17:00",835557,7.227,196.7,7.772,1.184,7.978,101.8317,3.974,5.172,72.26,0,109.8,13.47,4.74,158.7
"2009-04-27 00:17:30",835558,7.772,205.7,6.242,1.158,8.93,101.8317,3.974,5.278,72.34,0,109.8,13.47,4.74,167.7
"2009-04-27 00:18:00",835559,6.877,200,5.836,1.154,6.834,101.8317,3.974,5.24,72.33,0,109.8,13.47,4.74,162.0
"2009-04-27 00:18:30",835560,7.946,204.4,6.087,1.216,8.26,101.8317,3.974,5.189,72.29,0,109.8,13.48,4.74,166.4
"2009-04-27 00:19:00",835561,7.944,205.4,6.133,1.138,8.36,101.8317,3.974,5.24,72.39,0,109.8,13.48,4.74,167.4
"2009-04-27 00:19:30",835562,7.904,204.6,6.074,1.342,8.32,101.8317,3.974,5.194,72.47,0,109.8,13.48,4.74,166.6
"2009-04-27 00:20:00",835563,8.29,204.3,5.705,1.054,8.41,101.8317,3.974,5.221,72.57,0,109.8,13.48,4.74,166.3
"2009-04-27 00:20:30",835564,7.857,205.7,6.635,1.18,7.946,101.8317,3.974,5.215,72.69,0,109.8,13.48,4.74,167.7
"2009-04-27 00:21:00",835565,6.899,199.4,5.908,0.955,6.761,101.8317,3.974,5.147,72.65,0,109.7,13.48,4.74,161.4
"2009-04-27 00:21:30",835566,7.472,199.7,5.365,1.197,8.81,101.8317,3.974,5.182,72.68,0,109.8,13.48,4.74,161.7
"2009-04-27 00:22:00",835567,6.71,203.3,7.053,1.223,8.2,101.8317,3.974,5.217,72.55,0,109.8,13.48,4.74,165.3
"2009-04-27 00:22:30",835568,7.479,210,6.397,1.164,8.43,101.8317,3.974,5.219,72.34,0,109.8,13.48,4.74,172.0
"2009-04-27 00:23:00",835569,8.09,210.3,5.469,1.115,8.28,101.8317,3.974,5.209,72.5,0,109.8,13.48,4.74,172.3
"2009-04-27 00:23:30",835570,7.354,207.4,6.88,1.28,7.372,101.8317,3.974,5.157,72.65,0,109.8,13.48,4.74,169.4
"2009-04-27 00:24:00",835571,7.736,208,6.026,1.162,8.07,101.8317,3.974,5.166,72.7,0,109.8,13.48,4.74,170.0
"2009-04-27 00:24:30",835572,7.852,207.8,7.386,1.153,8.03,101.8317,3.974,5.219,72.78,0,109.8,13.48,4.74,169.8
"2009-04-27 00:25:00",835573,8.38,207.8,4.615,0.972,9.1,101.8317,3.974,5.231,72.85,0,109.8,13.48,4.74,169.8
"2009-04-27 00:25:30",835574,7.982,205.4,5.622,1.119,8.62,101.8317,3.974,5.218,72.83,0,109.8,13.48,4.74,167.4
"2009-04-27 00:26:00",835575,7.498,198.9,6.183,1.268,7.613,101.8317,3.974,5.207,72.87,0,109.8,13.48,4.74,160.9
"2009-04-27 00:26:30",835576,6.952,207.2,3.863,1.413,6.605,101.8317,3.974,4.976,72.64,0,109.8,13.48,4.74,169.2
"2009-04-27 00:27:00",835577,6.979,210.8,6.143,1.281,7.448,101.8317,3.974,5.137,72.89,0,109.8,13.49,4.74,172.8
"2009-04-27 00:27:30",835578,7.6,209.2,6.636,1.19,8.17,101.8317,3.974,5.206,73.13,0,109.8,13.49,4.74,171.2
"2009-04-27 00:28:00",835579,7.436,213.4,6.324,1.163,8.48,101.8303,3.97,5.211,73.23,0,109.7,13.49,4.74,175.4
"2009-04-27 00:28:30",835580,7.226,211.3,5.356,1.005,8.94,101.8252,3.957,5.279,73.36,0,109.8,13.48,4.72,173.3
"2009-04-27 00:29:00",835581,7.45,203.8,7.035,1.22,7.127,101.8182,3.939,5.142,73.24,0,109.8,13.48,4.70,165.8
"2009-04-27 00:29:30",835582,7.328,203.6,6.246,1.134,6.477,101.8139,3.928,5.118,73.35,0,109.8,13.48,4.69,165.6
"2009-04-27 00:30:00",835583,8.02,205,6.54,1.277,7.342,101.8046,3.904,5.208,73.59,0,109.8,13.48,4.67,167.0
"2009-04-27 00:30:30",835584,8.47,206,6.32,1.131,8.66,101.7984,3.888,5.175,73.65,0,109.8,13.48,4.65,168.0
"2009-04-27 00:31:00",835585,8.35,207.1,5.542,1.068,8.86,101.7978,3.887,5.198,73.76,0,109.8,13.48,4.65,169.1
"2009-04-27 00:31:30",835586,8.73,208.7,5.216,1.113,8.87,101.7978,3.887,5.222,73.77,0,109.8,13.48,4.65,170.7
"2009-04-27 00:32:00",835587,8.26,204.8,6.09,1.203,8.3,101.7978,3.887,5.216,73.78,0,109.8,13.48,4.65,166.8
"2009-04-27 00:32:30",835588,7.964,200.4,6.322,1.014,8.54,101.7978,3.887,5.166,73.75,0,109.8,13.48,4.65,162.4
"2009-04-27 00:33:00",835589,6.506,193.3,6.054,1.196,5.807,101.7978,3.887,4.997,73.57,0,109.8,13.48,4.65,155.3
"2009-04-27 00:33:30",835590,7.038,197.8,6.293,1.184,7.067,101.791,3.87,5.022,73.56,0,109.8,13.48,4.64,159.8
"2009-04-27 00:34:00",835591,7.277,200.8,7.094,1.246,8.12,101.7831,3.849,5.135,73.71,0,109.8,13.49,4.61,162.8
"2009-04-27 00:34:30",835592,7.809,207.2,5.426,0.62,9.89,101.771,3.818,5.203,73.81,0,109.8,13.49,4.58,169.2
"2009-04-27 00:35:00",835593,7.812,204.8,3.93,0.869,9.46,101.7645,3.802,5.174,73.82,0,109.8,13.49,4.57,166.8
"2009-04-27 00:35:30",835594,7.405,201.1,5.728,1.164,8.46,101.7651,3.803,5.124,73.81,0,109.8,13.49,4.57,163.1
"2009-04-27 00:36:00",835595,6.284,194.9,4.384,1.331,5.757,101.7668,3.808,4.945,73.64,0,109.8,13.49,4.57,156.9
"2009-04-27 00:36:30",835596,5.666,202.4,7.232,1.488,6.075,101.7668,3.808,5.031,73.62,0,109.8,13.49,4.57,164.4
"2009-04-27 00:37:00",835597,6.986,206.2,7.966,1.16,8.31,101.7653,3.804,5.042,73.58,0,109.8,13.49,4.57,168.2
"2009-04-27 00:37:30",835598,6.42,211.8,5.408,0.636,9.83,101.7679,3.811,5.122,73.59,0,109.8,13.49,4.58,173.8
"2009-04-27 00:38:00",835599,5.664,195.8,9.76,1.233,8.98,101.7654,3.804,5.096,73.19,0,109.7,13.49,4.57,157.8
"2009-04-27 00:38:30",835600,6.231,190.5,6.09,1.669,7.147,101.7611,3.793,4.99,72.93,0,109.8,13.49,4.56,152.5
"2009-04-27 00:39:00",835601,5.178,193.5,8.73,0.961,5.951,101.7592,3.788,4.984,72.86,0,109.8,13.49,4.55,155.5
"2009-04-27 00:39:30",835602,4.968,189.1,6.77,0.926,4.856,101.7575,3.784,4.809,72.65,0,109.8,13.49,4.55,151.1
"2009-04-27 00:40:00",835603,5.49,194.5,9.07,1.171,6.27,101.7541,3.775,4.994,72.68,0,109.7,13.49,4.54,156.5
"2009-04-27 00:40:30",835604,7.21,210.6,6.952,0.68,9.63,101.7485,3.761,5.102,72.78,0,109.8,13.49,4.53,172.6
"2009-04-27 00:41:00",835605,7.246,194,5.684,0.737,9.82,101.749,3.762,5.107,72.8,0,109.7,13.5,4.53,156.0
"2009-04-27 00:41:30",835606,7.842,205.3,6.033,0.998,8.59,101.7519,3.77,5.1,72.81,0,109.8,13.49,4.53,167.3
"2009-04-27 00:42:00",835607,6.801,202.5,7.112,1.453,6.276,101.7474,3.758,4.903,72.8,0,109.7,13.49,4.52,164.5
"2009-04-27 00:42:30",835608,5.243,191.9,6.184,0.864,5.809,101.7496,3.764,4.971,73.03,0,109.8,13.49,4.53,153.9
"2009-04-27 00:43:00",835609,7.172,192.7,8.9,1.235,7.433,101.7482,3.76,4.853,72.74,0,109.8,13.49,4.53,154.7
"2009-04-27 00:43:30",835610,7.64,181,6.739,1.014,9.71,101.7519,3.77,5.044,72.64,0,109.8,13.5,4.53,143.0
"2009-04-27 00:44:00",835611,7.607,187.2,7.001,1.056,9.48,101.7579,3.785,5.07,72.51,0,109.8,13.5,4.55,149.2
"2009-04-27 00:44:30",835612,7.665,198.9,9.84,1.021,9.06,101.7633,3.799,5.082,72.49,0,109.8,13.5,4.56,160.9
"2009-04-27 00:45:00",835613,7.852,198.2,14.14,1.163,7.325,101.7669,3.808,4.991,72.46,0,109.8,13.5,4.57,160.2
"2009-04-27 00:45:30",835614,6.162,186.5,11.32,1.393,7.883,101.7737,3.825,5.004,72.51,0,109.8,13.5,4.59,148.5
"2009-04-27 00:46:00",835615,4.147,174.9,5.819,0.651,4.897,101.7757,3.831,4.956,72.22,0,109.8,13.53,4.60,136.9
"2009-04-27 00:46:30",835616,5.944,194.4,4.643,0.979,6.321,101.7746,3.828,4.872,71.91,0,109.8,13.5,4.59,156.4
"2009-04-27 00:47:00",835617,6.807,194.9,7.288,0.807,8.38,101.7777,3.836,5.104,72.46,0,109.8,13.5,4.60,156.9
"2009-04-27 00:47:30",835618,6.373,192.1,5.34,1.334,8.85,101.7786,3.838,5.079,72.63,0,109.8,13.5,4.60,154.1
"2009-04-27 00:48:00",835619,7.058,196.3,9.08,1.165,9.18,101.7794,3.84,5.113,72.62,0,109.8,13.5,4.61,158.3
"2009-04-27 00:48:30",835620,4.893,191.1,5.554,0.819,5.478,101.7771,3.834,5.017,72.45,0,109.8,13.5,4.60,153.1
"2009-04-27 00:49:00",835621,6.941,187.5,8.73,1.1,7.109,101.7763,3.832,4.874,72.43,0,109.8,13.5,4.60,149.5
"2009-04-27 00:49:30",835622,6.068,184.6,4.225,1.372,6.381,101.7777,3.836,4.97,72.64,0,109.7,13.5,4.60,146.6
"2009-04-27 00:50:00",835623,6.809,176,7.083,1.198,8.38,101.7809,3.844,5.087,72.69,0,109.7,13.5,4.61,138.0
"2009-04-27 00:50:30",835624,8.24,172.8,7.456,1.205,8.65,101.7849,3.854,5.067,72.63,0,109.8,13.5,4.62,134.8
"2009-04-27 00:51:00",835625,7.733,184.7,8.03,0.893,9.52,101.7883,3.863,5.176,72.69,0,109.8,13.5,4.63,146.7
"2009-04-27 00:51:30",835626,7.554,187.5,7.406,1.368,8.39,101.7911,3.87,5.062,72.6,0,109.7,13.5,4.64,149.5
"2009-04-27 00:52:00",835627,6.535,172.6,6.705,1.115,6.211,101.7919,3.872,5.01,72.7,0,109.8,13.5,4.64,134.6
"2009-04-27 00:52:30",835628,7.565,187.4,6.001,0.967,7.011,101.7925,3.873,5.006,72.87,0,109.8,13.5,4.64,149.4
"2009-04-27 00:53:00",835629,6.079,173.1,7.853,1.266,7.493,101.7902,3.868,5.129,73.13,0,109.8,13.5,4.63,135.1
"2009-04-27 00:53:30",835630,6.315,168.8,11.61,1.316,8.52,101.7882,3.863,5.124,73.08,0,109.8,13.5,4.63,130.8
"2009-04-27 00:54:00",835631,6.314,169.2,5.702,1.319,8.26,101.7849,3.854,5.123,73.07,0,109.8,13.5,4.62,131.2
"2009-04-27 00:54:30",835632,4.931,176.2,7.607,1.299,8.21,101.7826,3.848,5.073,73,0,109.8,13.5,4.61,138.2
"2009-04-27 00:55:00",835633,3.917,195.8,13.72,0.749,5.342,101.7817,3.846,4.996,72.83,0,109.8,13.5,4.61,157.8
"2009-04-27 00:55:30",835634,4.588,193.2,17.78,1.255,6.835,101.7812,3.844,4.954,72.78,0,109.8,13.5,4.61,155.2
"2009-04-27 00:56:00",835635,5.742,192.7,14.22,1.332,8.08,101.782,3.847,5.036,72.86,0,109.8,13.5,4.61,154.7
"2009-04-27 00:56:30",835636,5.727,196.7,4.426,1.593,5.795,101.7826,3.848,4.993,72.83,0,109.8,13.5,4.61,158.7
"2009-04-27 00:57:00",835637,6.627,196.7,4.907,1.392,8.76,101.7826,3.848,5.108,73.18,0,109.8,13.5,4.61,158.7
"2009-04-27 00:57:30",835638,6.246,196.9,7.364,1.113,8.52,101.7832,3.85,5.134,73.28,0,109.8,13.5,4.62,158.9
"2009-04-27 00:58:00",835639,5.943,202.5,7.311,1.272,7.817,101.782,3.847,5.053,73.16,0,109.8,13.5,4.61,164.5
"2009-04-27 00:58:30",835640,5.628,191.7,6.434,1.016,6.928,101.784,3.852,5.05,73.4,0,109.8,13.5,4.62,153.7
"2009-04-27 00:59:00",835641,5.294,189.3,9.27,1.587,6.884,101.7835,3.85,4.987,73.41,0,109.8,13.5,4.62,151.3
"2009-04-27 00:59:30",835642,5.498,196.7,10.49,1.073,6.447,101.7846,3.853,5.028,73.43,0,109.8,13.5,4.62,158.7
"2009-04-27 01:00:00",835643,5.589,187.8,17.16,1.238,7.608,101.7843,3.853,5.096,73.6,0,109.8,13.5,4.62,149.8
"2009-04-27 01:00:30",835644,5.699,181.5,23.39,1.178,8.94,101.7832,3.85,5.183,73.54,0,109.8,13.5,4.62,143.5
"2009-04-27 01:01:00",835645,5.27,187.3,13.37,1.328,8.27,101.7846,3.853,5.103,73.25,0,109.8,13.5,4.62,149.3
"2009-04-27 01:01:30",835646,4.788,152.5,9.48,1.294,7.577,101.7843,3.853,5.041,72.89,0,109.8,13.5,4.62,114.5
"2009-04-27 01:02:00",835647,3.845,149.4,12.76,1.273,6.267,101.7852,3.855,4.999,72.67,0,109.8,13.5,4.62,111.4
"2009-04-27 01:02:30",835648,3.542,156.9,8.84,0.886,4.919,101.7858,3.856,4.862,72.41,0,109.8,13.5,4.62,118.9
"2009-04-27 01:03:00",835649,3.44,172.6,7.783,1.05,7.196,101.7835,3.85,5.033,72.51,0,109.8,13.5,4.62,134.6
"2009-04-27 01:03:30",835650,3.174,184.4,7.026,1.34,8.02,101.7843,3.853,5.093,72.48,0,109.8,13.5,4.62,146.4
"2009-04-27 01:04:00",835651,3.676,171.4,6.59,0.976,8.29,101.784,3.852,5.08,72.48,0,109.8,13.5,4.62,133.4
"2009-04-27 01:04:30",835652,3.164,182.7,15.35,1.079,6.196,101.7846,3.853,4.893,72.29,0,109.8,13.5,4.62,144.7
"2009-04-27 01:05:00",835653,3.618,190.4,9.77,1.122,6.235,101.7872,3.86,4.977,72.77,0,109.8,13.5,4.63,152.4
"2009-04-27 01:05:30",835654,4.388,182.9,8.24,1.52,6.364,101.7872,3.86,5,73.06,0,109.8,13.5,4.63,144.9
"2009-04-27 01:06:00",835655,3.698,176.3,6.893,0.818,4.883,101.7881,3.862,4.94,73.01,0,109.8,13.51,4.63,138.3
"2009-04-27 01:06:30",835656,5.536,185.1,5.826,1.227,9.18,101.7887,3.864,5.067,73.05,0,109.8,13.51,4.63,147.1
"2009-04-27 01:07:00",835657,4.444,179.3,7.756,1.005,8.5,101.7887,3.864,5.099,73.08,0,109.8,13.51,4.63,141.3
"2009-04-27 01:07:30",835658,4.967,169.3,8.09,1.198,8.17,101.7889,3.864,5.067,73.1,0,109.8,13.51,4.63,131.3
"2009-04-27 01:08:00",835659,3.409,169.9,6.276,1.082,6.097,101.7889,3.864,5.02,73.04,0,109.8,13.51,4.63,131.9
"2009-04-27 01:08:30",835660,3.499,170.5,6.585,1.067,4.896,101.7904,3.868,4.951,73.02,0,109.8,13.51,4.63,132.5
"2009-04-27 01:09:00",835661,3.678,177.5,10.89,1.172,5.84,101.7904,3.868,4.927,73.02,0,109.8,13.51,4.63,139.5
"2009-04-27 01:09:30",835662,4.259,184.9,9.17,1.184,6.07,101.7892,3.865,4.958,73.16,0,109.8,13.51,4.63,146.9
"2009-04-27 01:10:00",835663,5.366,191.9,8.38,0.881,8.83,101.7892,3.865,5.106,73.36,0,109.8,13.51,4.63,153.9
"2009-04-27 01:10:30",835664,4.569,191.6,6.696,1.12,8.26,101.7901,3.867,5.124,73.4,0,109.8,13.51,4.63,153.6
"2009-04-27 01:11:00",835665,4.344,184.9,7.468,1.283,6.89,101.7889,3.864,5.01,73.35,0,109.8,13.51,4.63,146.9
"2009-04-27 01:11:30",835666,4.688,177.7,6.383,1.521,6.396,101.7867,3.859,4.956,73.25,0,109.8,13.51,4.62,139.7
"2009-04-27 01:12:00",835667,3.295,174.8,3.88,0.974,5.37,101.7881,3.862,4.99,73.19,0,109.8,13.51,4.63,136.8
"2009-04-27 01:12:30",835668,3.534,186.3,8.65,0.968,5.602,101.7833,3.85,5.008,73.04,0,109.8,13.51,4.62,148.3
"2009-04-27 01:13:00",835669,4.789,193.5,7.597,1.246,7.781,101.7853,3.855,5.042,73,0,109.8,13.51,4.62,155.5
"2009-04-27 01:13:30",835670,4.433,181.3,8.75,1.307,7.674,101.7828,3.849,5.12,73.05,0,109.7,13.51,4.61,143.3
"2009-04-27 01:14:00",835671,4.897,187.7,6.428,1.141,7.444,101.7822,3.847,4.969,72.85,0,109.8,13.51,4.61,149.7
"2009-04-27 01:14:30",835672,4.432,174.9,13.16,1.251,7.847,101.7785,3.838,5.054,72.92,0,109.8,13.51,4.60,136.9
"2009-04-27 01:15:00",835673,2.573,170.9,9.22,0.473,4.337,101.778,3.836,4.858,72.64,0,109.8,13.51,4.60,132.9
"2009-04-27 01:15:30",835674,2.547,146.8,6.454,0.223,4.095,101.7748,3.828,4.876,72.62,0,109.8,13.55,4.59,108.8
"2009-04-27 01:16:00",835675,4.372,163.9,13.22,1.153,7.986,101.7731,3.824,5.109,72.77,0,109.8,13.51,4.59,125.9
"2009-04-27 01:16:30",835676,4.557,186.6,6.6,1.231,7.741,101.7763,3.832,5.053,72.64,0,109.8,13.51,4.60,148.6
"2009-04-27 01:17:00",835677,4.712,178.8,7.044,1.226,7.472,101.7757,3.831,5.012,72.57,0,109.8,13.51,4.60,140.8
"2009-04-27 01:17:30",835678,4.623,168.2,9.49,1.211,7.729,101.7754,3.83,5.107,72.67,0,109.8,13.51,4.60,130.2
"2009-04-27 01:18:00",835679,3.513,149.9,13.9,1.073,5.801,101.776,3.831,4.976,72.48,0,109.8,13.51,4.60,111.9
"2009-04-27 01:18:30",835680,3.139,139.5,4.714,0.284,4.229,101.7803,3.842,4.852,72.31,0,109.8,13.54,4.61,101.5
"2009-04-27 01:19:00",835681,4.563,147.3,6.367,1.161,6.953,101.7766,3.833,5.018,72.45,0,109.8,13.51,4.60,109.3
"2009-04-27 01:19:30",835682,4.642,149.8,10.53,1.343,7.614,101.7783,3.837,5.077,72.49,0,109.7,13.51,4.60,111.8
"2009-04-27 01:20:00",835683,4.293,162.3,12.06,1.195,7.057,101.7791,3.839,5.024,72.43,0,109.8,13.51,4.60,124.3
"2009-04-27 01:20:30",835684,4.748,172.1,8.13,1.148,8.49,101.7785,3.838,5.083,72.54,0,109.8,13.51,4.60,134.1
"2009-04-27 01:21:00",835685,3.901,149.8,8.48,1.328,6.817,101.7826,3.848,5.028,72.51,0,109.8,13.51,4.61,111.8
"2009-04-27 01:21:30",835686,2.566,150.6,2.915,0.072,4.538,101.7845,3.853,4.847,72.29,0,109.8,13.54,4.62,112.6
"2009-04-27 01:22:00",835687,3.032,158.5,7.205,1.013,5.597,101.7848,3.854,4.972,72.4,0,109.8,13.51,4.62,120.5
"2009-04-27 01:22:30",835688,3.963,168.3,6.125,1.135,8.2,101.7831,3.849,5.081,72.55,0,109.8,13.51,4.61,130.3
"2009-04-27 01:23:00",835689,2.839,168.4,6.332,1.216,6.284,101.7851,3.854,5.053,72.6,0,109.8,13.51,4.62,130.4
"2009-04-27 01:23:30",835690,4.39,166.8,7.843,1.129,7.922,101.7882,3.862,5.068,72.64,0,109.8,13.51,4.63,128.8
"2009-04-27 01:24:00",835691,4.735,177.5,8.91,1.096,8.13,101.7868,3.859,5.076,72.72,0,109.8,13.51,4.62,139.5
"2009-04-27 01:24:30",835692,4.145,176.2,5.479,1.156,6.847,101.7879,3.862,4.949,72.6,0,109.8,13.52,4.63,138.2
"2009-04-27 01:25:00",835693,4.325,176.2,6.821,1.166,5.996,101.7908,3.869,4.921,72.6,0,109.8,13.52,4.63,138.2
"2009-04-27 01:25:30",835694,4.691,176.1,7.289,1.292,7.266,101.7893,3.865,5.035,72.75,0,109.8,13.52,4.63,138.1
"2009-04-27 01:26:00",835695,4.925,176.3,5.776,1.147,8.34,101.7891,3.865,5.062,72.7,0,109.8,13.52,4.63,138.3
"2009-04-27 01:26:30",835696,4.001,178.1,5.149,1.263,6.878,101.7922,3.873,4.965,72.47,0,109.8,13.52,4.64,140.1
"2009-04-27 01:27:00",835697,4.866,175.3,6.611,1.221,7.417,101.7899,3.867,5.112,72.6,0,109.8,13.52,4.63,137.3
"2009-04-27 01:27:30",835698,4.096,169.5,6.842,1.315,7.32,101.7899,3.867,5.069,72.62,0,109.8,13.52,4.63,131.5
"2009-04-27 01:28:00",835699,4.315,158.4,8.03,1.132,5.787,101.7908,3.869,4.861,72.43,0,109.8,13.52,4.63,120.4
"2009-04-27 01:28:30",835700,4.704,171.9,4.908,1.121,7.183,101.7916,3.871,4.991,72.59,0,109.8,13.52,4.64,133.9
"2009-04-27 01:29:00",835701,4.544,171.2,10.17,1.118,8.25,101.7905,3.868,5.125,72.8,0,109.8,13.52,4.63,133.2
"2009-04-27 01:29:30",835702,5.445,165.5,6.916,1.145,8.09,101.7891,3.865,5.038,72.74,0,109.8,13.52,4.63,127.5
"2009-04-27 01:30:00",835703,3.855,163.7,4.018,1.093,5.667,101.7885,3.863,5.005,72.69,0,109.8,13.52,4.63,125.7
"2009-04-27 01:30:30",835704,4.022,162.5,6.617,1.053,5.926,101.7883,3.863,4.929,72.69,0,109.8,13.52,4.63,124.5
"2009-04-27 01:31:00",835705,5.005,173.1,7.153,1.406,7.612,101.7843,3.852,5.107,72.9,0,109.7,13.52,4.62,135.1
"2009-04-27 01:31:30",835706,5.284,166.8,5.759,1.172,7.968,101.7832,3.85,5.081,72.92,0,109.8,13.52,4.62,128.8
"2009-04-27 01:32:00",835707,5.451,172,9.36,1.223,8.29,101.7806,3.843,5.149,73.08,0,109.8,13.52,4.61,134.0
"2009-04-27 01:32:30",835708,5.353,168.6,6.733,1.305,7.999,101.7727,3.823,5.095,73.19,0,109.8,13.52,4.59,130.6
"2009-04-27 01:33:00",835709,4.569,158.4,6.674,1.331,6.717,101.7662,3.806,5.059,73.26,0,109.8,13.52,4.57,120.4
"2009-04-27 01:33:30",835710,3.576,183.4,13.99,1.133,5.134,101.7645,3.802,4.965,73.4,0,109.8,13.51,4.57,145.4
"2009-04-27 01:34:00",835711,4.542,201.8,14.35,1.421,7.691,101.7645,3.802,5.065,74.33,0,109.8,13.51,4.57,163.8
"2009-04-27 01:34:30",835712,5.748,172,9.16,0.93,8.8,101.7603,3.791,5.037,74.85,0,109.8,13.51,4.56,134.0
"2009-04-27 01:35:00",835713,4.649,184.5,14.57,1.293,8.27,101.7484,3.761,5.087,75.08,0,109.8,13.51,4.53,146.5
"2009-04-27 01:35:30",835714,4.723,183.7,14.65,1.231,7.896,101.7326,3.72,5.004,75.2,0,109.8,13.51,4.49,145.7
"2009-04-27 01:36:00",835715,3.067,185.8,17.95,0.767,5.215,101.7306,3.715,4.908,75.04,0,109.8,13.51,4.48,147.8
"2009-04-27 01:36:30",835716,3.132,206.6,7.808,0.276,4.182,101.7306,3.715,4.856,75.22,0,109.8,13.54,4.48,168.6
"2009-04-27 01:37:00",835717,4.37,198,7.818,1.271,8.05,101.7306,3.715,4.983,75.57,0,109.8,13.51,4.48,160.0
"2009-04-27 01:37:30",835718,4.474,199.4,9.47,1.106,8.41,101.7283,3.71,4.982,75.59,0,109.8,13.51,4.47,161.4
"2009-04-27 01:38:00",835719,5.434,212.2,12,0.897,8.43,101.7153,3.676,5.016,75.64,0,109.8,13.51,4.44,174.2
"2009-04-27 01:38:30",835720,5.012,200,9.94,1.286,7.241,101.7029,3.645,4.895,75.56,0,109.8,13.51,4.41,162.0
"2009-04-27 01:39:00",835721,3.614,202.8,7.929,1.039,5.824,101.6969,3.629,4.91,75.59,0,109.8,13.52,4.39,164.8
"2009-04-27 01:39:30",835722,5.25,199.6,7.21,1.794,6.857,101.6966,3.629,4.833,75.64,0,109.8,13.52,4.39,161.6
"2009-04-27 01:40:00",835723,5.94,213.5,7.209,1.252,7.869,101.6966,3.629,4.916,75.89,0,109.8,13.52,4.39,175.5
"2009-04-27 01:40:30",835724,6.125,219.2,5.688,0.886,9.35,101.6966,3.629,4.965,76,0,109.8,13.52,4.39,181.2
"2009-04-27 01:41:00",835725,6.222,221.3,4.485,0.907,8.96,101.6924,3.618,4.975,76.08,0,109.8,13.52,4.38,183.3
"2009-04-27 01:41:30",835726,5.625,212.9,7.985,1.291,7.962,101.6839,3.596,4.847,76.05,0,109.8,13.52,4.36,174.9
"2009-04-27 01:42:00",835727,4.718,202.8,12.64,1.447,6.102,101.6658,3.55,4.715,76.18,0,109.8,13.52,4.31,164.8
"2009-04-27 01:42:30",835728,2.851,186.1,4.82,0.471,4.905,101.6627,3.542,4.653,76.2,0,109.8,13.52,4.31,148.1
"2009-04-27 01:43:00",835729,4.401,211.6,14.33,1.111,8.11,101.6627,3.542,4.861,76.43,0,109.7,13.52,4.31,173.6
"2009-04-27 01:43:30",835730,4.053,226.7,5.978,1.008,8.29,101.6627,3.542,4.818,76.37,0,109.8,13.52,4.31,188.7
"2009-04-27 01:44:00",835731,4.049,204.3,10.28,1.13,8.25,101.6616,3.539,4.815,76.46,0,109.8,13.53,4.30,166.3
"2009-04-27 01:44:30",835732,4.805,206.8,10.59,1.104,7.757,101.6534,3.518,4.763,76.49,0,109.8,13.52,4.28,168.8
"2009-04-27 01:45:00",835733,3.506,198.7,8.63,1.07,6.502,101.644,3.494,4.772,76.59,0,109.8,13.53,4.26,160.7
"2009-04-27 01:45:30",835734,3.893,200.1,7.167,1.263,6.55,101.6376,3.478,4.778,76.69,0,109.8,13.52,4.24,162.1
"2009-04-27 01:46:00",835735,4.551,191.5,9.11,1.112,8.21,101.6288,3.455,4.781,76.83,0,109.8,13.53,4.22,153.5
"2009-04-27 01:46:30",835736,4.85,197.4,8.9,1.034,8.61,101.6291,3.456,4.778,76.94,0,109.8,13.53,4.22,159.4
"2009-04-27 01:47:00",835737,5.915,190.3,6.79,0.854,9.36,101.6223,3.439,4.846,77.16,0,109.8,13.53,4.20,152.3
"2009-04-27 01:47:30",835738,6.011,175.6,8.37,0.621,9.25,101.6059,3.397,4.827,77.4,0,109.7,13.53,4.16,137.6
"2009-04-27 01:48:00",835739,5.559,164.4,6.037,1.099,7.871,101.596,3.372,4.755,77.56,0,109.7,13.52,4.14,126.4
"2009-04-27 01:48:30",835740,5.646,158.8,8.23,0.988,7.744,101.5986,3.378,4.72,77.75,0,109.8,13.52,4.14,120.8
"2009-04-27 01:49:00",835741,5.637,163.5,6.669,1.09,7.741,101.5935,3.365,4.646,77.65,0,109.7,13.52,4.13,125.5
"2009-04-27 01:49:30",835742,4.972,183.6,6.605,1.377,8.1,101.5796,3.33,4.688,77.55,0,109.7,13.52,4.09,145.6